This demonstration page uses our WeatherBlox Daily Observations layout. Learn more.

Left ArrowRight Arrow

41.55636, -103.73856

Hourly Observations for July 23, 2018

Temp ( °F °C ) Dew Point ( °F °C ) Humidity (%) Winds ( mph kmh ) Pressure ( in mb ) Visibility ( mi km ) Precip ( " mm )
12:58 am 00:58 Partly Cloudy 66 18.7 55 12.7 68 68 N 8 13 30.18 1022 10 16 N/A
1:58 am 01:58 Mostly Cloudy 65 18.4 54 12.3 68 68 N 9 15 30.18 1022 10 16 N/A
2:58 am 02:58 Mostly Cloudy 64 18 55 12.6 71 71 N 6 9 30.18 1022 10 16 N/A
3:58 am 03:58 Mostly Cloudy with Light Showers 64 17.6 57 13.9 79 79 NE 7 11 30.18 1022 10 16 N/A
4:58 am 04:58 Cloudy with Rain 63 17.3 59 15.2 88 88 NE 7 11 30.21 1023 10 16 0.03 0.76
5:58 am 05:58 Mostly Cloudy with Rain 63 17.2 61 16.1 93 93 ENE 13 20 30.21 1023 8 13 0.48 12.19
6:58 am 06:58 Cloudy with Light Showers 63 17.1 61 16 93 93 ENE 9 15 30.23 1024 10 16 0.01 0.25
7:58 am 07:58 Mostly Cloudy with Light Showers 63 17.3 61 16.2 93 93 E 8 13 30.25 1025 9 14 N/A
8:58 am 08:58 Mostly Cloudy 64 17.6 61 16 90 90 ESE 12 19 30.25 1025 10 16 N/A
9:58 am 09:58 Mostly Cloudy 65 18.3 58 14.5 79 79 E 13 20 30.27 1025 10 16 0.01 0.25
10:58 am 10:58 Cloudy with Light Showers 62 16.8 57 14.1 84 84 E 9 15 30.28 1026 10 16 0.01 0.25
11:58 am 11:58 Cloudy with Light Showers and Nearby Thunderstorms 64 17.5 60 15.6 89 89 E 8 13 30.29 1026 10 16 0.01 0.25
12:58 pm 12:58 Mostly Cloudy 67 19.6 58 14.6 73 73 SE 9 15 30.27 1025 10 16 0.02 0.51
1:58 pm 13:58 Mostly Cloudy 69 20.6 56 13.6 64 64 ESE 10 17 30.24 1024 10 16 N/A
2:58 pm 14:58 Mostly Cloudy 72 22.1 59 14.9 64 64 SE 12 19 30.22 1024 10 16 N/A
3:58 pm 15:58 Mostly Cloudy 73 22.9 56 13.6 56 56 SSE 9 15 30.20 1023 10 16 N/A
4:58 pm 16:58 Mostly Cloudy 73 22.6 55 12.6 53 53 SE 10 17 30.19 1022 10 16 N/A
5:58 pm 17:58 Sunny 73 23 49 9.3 42 42 SSE 15 24 30.18 1022 10 16 N/A
6:58 pm 18:58 Sunny 71 21.8 52 11 50 50 SSE 10 17 30.18 1022 10 16 N/A
7:58 pm 19:58 Mostly Sunny 69 20.7 53 11.6 56 56 S 8 13 30.18 1022 10 16 N/A
8:58 pm 20:58 Cloudy 67 19.4 53 11.9 62 62 SSE 7 11 30.21 1023 10 16 N/A
9:58 pm 21:58 Mostly Cloudy 65 18.6 54 12.4 67 67 SSE 7 11 30.22 1024 10 16 N/A
10:58 pm 22:58 Clear 62 16.7 54 12 74 74 S 7 11 30.23 1024 10 16 N/A
11:58 pm 23:58 Mostly Cloudy 63 17.1 53 11.6 70 70 S 10 17 30.22 1023 10 16 N/A

Powered by AerisWeather